GFSMA_700_rhum_051.txt.gz
RH
46 47 48 52 56 61 62 58 56 52 46 39 36 36 39 44 51 54 59 63 67 68 67 65 62 60 58 58 57 55 56 58 58 44 37 35 35 35 34 34 35 35 35
43 48 52 55 56 55 52 48 43 39 36 35 35 34 35 34 36 40 44 52 59 62 65 66 68 70 68 65 62 59 56 59 62 59 44 39 38 38 38 38 37 36 36
29 38 42 43 44 42 44 42 39 37 38 39 38 43 42 41 41 44 47 51 52 54 56 60 66 69 68 68 63 61 59 59 62 66 57 43 41 41 41 41 40 39 37
23 29 34 39 44 47 43 41 39 38 40 44 49 51 47 45 49 52 49 51 51 52 58 60 62 68 72 74 73 71 69 69 64 67 69 58 44 42 43 43 43 42 42
27 28 32 36 41 43 41 39 39 42 47 54 55 50 44 43 46 56 60 69 76 75 74 74 70 68 73 76 80 84 79 76 74 70 71 72 53 44 44 45 45 45 45
24 23 24 28 34 35 38 42 46 50 55 46 39 38 44 46 40 46 59 67 64 64 72 76 86 83 76 73 74 82 89 88 83 84 80 77 75 51 44 46 47 47 48
25 24 21 17 17 19 27 30 33 37 28 50 53 30 25 28 28 33 35 42 52 61 71 68 73 73 77 77 79 84 92 99 98 88 82 94 84 80 53 44 48 49 50
27 25 23 19 16 21 22 25 34 32 31 25 25 22 23 24 30 31 34 43 45 50 58 57 56 59 65 76 86 91 95 100 100 100 98 78 94 100 88 52 44 50 53
22 22 21 20 30 27 24 20 20 31 23 22 26 28 26 22 18 20 30 35 42 58 52 55 55 70 88 74 72 75 100 100 99 100 99 99 93 85 98 96 52 49 53
16 16 16 16 16 16 18 20 21 21 21 20 20 22 23 22 28 31 39 65 57 43 34 36 38 38 39 39 47 73 68 78 99 96 98 97 98 98 99 96 99 67 56
13 13 13 14 16 18 18 19 20 20 20 19 19 21 27 43 45 43 40 42 35 37 39 40 37 36 34 37 41 45 50 52 58 73 75 98 99 99 98 98 99 98 100
12 13 14 16 18 19 20 20 19 19 20 23 34 36 49 76 41 38 37 37 37 37 34 34 34 32 32 39 43 50 53 52 53 62 73 88 87 92 100 96 98 99 96
16 17 18 19 19 17 17 18 21 26 31 41 47 50 83 57 40 39 40 42 37 26 30 33 36 37 39 42 44 46 53 58 61 63 72 80 81 97 92 100 98 98 97
18 18 17 16 16 18 24 30 32 34 37 37 35 51 34 37 38 40 42 35 25 27 32 31 32 38 40 42 38 41 56 68 78 76 77 92 99 99 98 98 100 98 96
17 17 18 20 26 28 24 26 23 20 19 21 25 33 38 39 41 41 32 26 26 28 29 33 32 34 35 34 36 38 43 60 77 80 97 97 96 100 100 95 97 97 96
17 20 27 30 28 25 28 28 27 26 29 37 42 44 42 38 33 29 24 24 28 30 29 28 28 29 34 40 40 43 46 64 60 80 91 90 95 97 97 97 98 97 96
25 28 32 31 27 32 34 35 36 39 45 49 49 36 30 27 23 25 25 26 29 29 25 24 28 35 41 46 51 48 48 52 56 78 88 96 96 96 97 97 97 97 97
32 33 32 25 27 34 38 43 48 52 48 29 25 21 20 20 23 24 24 25 27 25 22 27 32 39 43 49 51 47 53 56 67 80 87 92 94 94 96 99 98 98 95
31 30 26 28 37 41 42 44 32 24 22 19 19 19 20 22 24 25 26 27 26 25 27 34 35 36 39 48 52 59 64 64 76 79 83 93 95 95 93 94 97 97 94
34 34 36 39 37 31 24 22 21 21 24 24 27 32 39 43 44 39 38 39 36 33 32 26 21 15 12 14 11 15 26 36 30 41 58 71 85 92 93 92 94 95 93
39 40 36 26 22 23 24 26 31 33 37 40 41 22 8 18 28 28 24 18 11 5 4 4 4 4 4 4 4 4 4 4 5 6 10 15 18 21 30 43 44 41 31
38 29 26 24 27 30 36 31 32 35 25 10 4 3 4 5 5 5 6 5 5 5 7 8 8 6 5 4 4 4 4 3 3 3 3 3 3 4 4 4 4 3 3
34 31 32 34 36 37 12 9 4 3 3 4 4 6 7 10 11 11 11 10 11 11 12 11 9 7 6 7 7 6 6 5 4 3 3 2 2 2 2 2 2 4 6
40 40 38 40 42 22 7 3 4 5 6 9 11 13 14 16 17 18 17 17 17 18 18 17 15 14 13 11 8 6 5 4 4 3 3 3 3 3 4 4 7 11 15
40 42 43 48 20 7 4 5 7 10 13 15 17 19 21 24 26 26 26 26 24 22 21 20 18 15 11 7 5 4 4 4 4 4 4 4 5 6 8 10 14 19 22
40 48 56 35 19 16 14 13 17 19 20 22 25 28 30 31 32 32 32 31 29 23 20 19 13 8 6 5 4 5 5 6 6 5 6 6 8 10 14 20 24 26 26

GFSMA_700_rhum_054.txt.gz
RH
44 44 45 45 48 53 57 60 57 54 49 41 38 34 33 31 29 30 32 36 45 51 58 60 60 63 65 67 68 66 63 59 55 56 59 50 39 36 36 36 35 35 35
37 41 46 50 53 55 55 52 46 43 40 37 37 38 37 36 40 40 38 37 40 45 48 51 54 56 57 58 59 62 62 61 59 57 61 62 51 40 39 39 38 38 37
26 24 30 40 43 42 39 38 40 39 37 37 39 42 43 48 50 46 40 42 46 47 51 52 52 54 56 58 60 59 62 67 67 64 61 63 64 52 42 41 41 41 40
35 24 24 32 34 32 32 34 38 38 39 41 43 48 54 55 52 47 42 45 54 58 60 63 64 63 63 64 65 62 60 60 69 72 71 67 67 66 50 42 43 43 43
41 36 27 28 31 29 29 34 39 42 42 45 51 58 61 49 42 44 46 44 45 65 72 74 69 74 74 73 76 73 67 64 64 73 80 81 77 73 70 50 43 44 45
39 31 27 24 26 25 27 29 33 36 48 54 50 45 38 47 51 27 28 29 31 36 43 59 69 72 75 74 71 72 75 76 75 72 75 87 96 92 82 77 51 44 46
26 24 24 24 25 23 22 24 23 23 29 30 30 34 35 27 26 31 32 36 38 39 40 40 43 59 66 65 64 67 75 85 90 89 93 84 80 85 90 94 93 52 44
30 30 30 28 27 25 27 32 28 32 33 28 26 33 28 23 23 24 24 22 22 29 33 39 52 53 49 49 61 71 73 85 87 99 97 97 92 94 99 100 100 100 50
30 26 22 21 21 23 25 25 30 40 38 34 27 30 22 23 22 20 20 25 35 38 60 62 46 37 36 38 44 47 68 53 41 90 99 97 99 99 98 99 99 99 100
18 15 14 14 14 15 16 17 18 20 21 21 20 19 19 19 19 22 34 48 37 38 36 34 34 35 35 34 35 36 37 36 38 50 67 67 77 90 97 94 97 94 98
16 13 12 12 13 14 16 18 19 20 21 22 20 18 19 22 31 41 54 52 30 38 40 40 34 24 27 28 27 26 25 25 30 38 47 53 58 80 84 92 89 98 99
15 13 13 13 14 15 17 19 20 20 18 18 20 32 30 45 52 57 75 41 34 37 40 27 26 28 30 29 28 31 33 33 34 39 46 54 64 78 82 100 84 98 99
13 12 12 13 14 16 18 18 16 17 19 25 31 39 72 74 49 49 58 40 39 38 32 27 29 30 31 31 35 36 36 33 31 45 57 65 65 72 99 88 99 87 98
13 14 16 17 17 16 15 16 17 24 26 23 24 28 37 36 54 57 44 44 39 32 30 30 31 33 37 38 39 35 33 34 34 40 57 73 74 88 98 96 99 98 98
17 17 17 16 16 16 18 23 26 24 25 25 21 20 24 34 41 45 46 45 39 30 26 26 30 32 31 33 34 40 37 40 41 55 58 58 67 88 94 99 100 98 98
18 17 17 17 18 22 28 29 25 27 30 30 30 37 44 50 49 43 40 38 31 28 26 28 29 27 31 35 38 42 43 40 41 44 50 64 69 90 100 98 99 98 97
18 18 19 22 24 29 31 27 29 34 36 39 43 49 50 39 31 27 25 24 24 24 25 26 24 28 32 34 38 48 43 39 42 46 55 59 72 85 96 98 98 97 96
24 26 27 29 29 32 30 26 32 40 43 44 44 27 23 22 19 19 22 23 22 25 27 26 27 32 25 20 28 34 40 50 54 47 60 65 70 82 87 94 96 99 100
31 33 32 32 33 30 29 37 41 42 36 23 21 21 20 23 27 31 31 25 28 32 36 32 33 19 14 10 9 7 7 9 13 18 14 25 48 71 85 90 90 89 92
34 34 37 38 36 41 43 38 27 23 22 23 26 25 32 28 32 36 38 37 39 35 25 10 4 5 5 5 5 5 4 4 4 4 4 5 8 13 20 54 77 85 89
37 38 41 43 41 36 26 23 24 28 32 33 35 32 7 3 4 4 5 5 4 5 6 6 7 8 8 7 6 5 6 7 7 7 5 4 4 4 4 6 7 11 18
46 45 46 39 28 24 25 30 32 27 30 29 10 3 4 5 7 8 10 10 10 10 10 11 12 12 12 11 9 10 11 11 11 8 8 5 4 3 3 2 2 2 2
52 42 32 28 27 31 36 26 16 5 3 3 4 5 8 11 13 15 16 17 17 18 18 18 19 19 20 18 17 16 13 12 10 8 5 4 4 3 3 3 3 2 2
40 36 34 35 36 41 13 4 3 4 5 7 9 12 15 17 19 21 24 25 26 26 26 25 24 22 21 19 15 11 8 6 5 4 4 3 3 3 4 4 4 5 6
43 43 44 43 45 32 14 4 6 8 10 14 17 19 22 25 29 29 30 31 31 30 29 27 23 22 19 13 9 7 5 5 5 5 5 5 5 5 5 6 7 8 11
49 52 51 50 34 10 8 11 14 17 20 22 24 29 31 30 32 35 34 33 32 31 27 23 21 18 13 10 8 7 7 7 7 7 7 7 7 8 8 10 12 13 15

GFSMA_700_rhum_057.txt.gz
RH
41 42 43 44 44 45 48 52 56 56 51 44 38 35 33 34 36 37 41 40 39 38 38 38 38 41 45 47 49 55 59 59 59 58 58 56 57 58 46 38 36 36 35
41 36 37 41 44 47 50 50 49 44 41 40 38 36 35 37 41 47 49 45 41 37 42 47 48 47 46 46 46 48 52 55 58 59 61 62 61 62 60 45 40 39 38
28 30 27 23 30 36 39 38 38 38 40 40 38 38 38 43 48 55 52 42 37 39 44 50 59 61 65 69 69 68 66 65 61 63 65 66 69 68 66 64 46 42 41
38 38 36 31 24 25 28 31 32 32 33 36 38 41 47 49 54 56 45 47 48 42 43 43 60 67 70 67 64 69 71 68 72 71 66 69 71 78 78 73 67 49 43
40 40 40 38 34 27 24 26 26 26 26 33 38 40 45 53 45 39 38 40 25 24 30 30 31 39 52 60 63 68 73 75 72 65 70 73 82 85 88 91 85 76 50
41 42 41 37 32 28 26 26 29 36 40 37 24 25 31 29 31 31 34 28 30 30 28 31 33 38 41 48 51 65 71 69 67 71 79 75 79 84 81 79 82 91 94
41 37 30 25 26 27 29 29 32 33 35 36 37 34 36 33 30 30 23 26 29 24 22 23 28 32 36 41 53 57 56 57 65 72 77 87 85 79 79 88 81 86 96
29 28 29 32 32 34 33 34 34 36 37 43 47 54 47 32 26 20 18 23 20 23 30 38 44 51 61 59 50 41 40 46 62 57 81 68 71 99 91 69 100 99 98
32 33 33 31 27 24 20 20 21 26 26 24 26 28 28 22 22 24 18 18 25 42 48 38 36 35 37 34 32 34 35 36 37 42 42 45 48 78 99 98 99 68 91
33 33 30 23 17 14 14 13 14 16 18 20 21 21 22 22 20 20 22 31 41 64 44 30 30 31 32 32 23 22 23 25 25 24 28 33 38 62 69 72 82 83 80
31 29 25 21 18 14 12 12 13 16 18 20 21 22 20 19 22 28 36 51 51 59 54 34 32 32 20 18 21 21 22 22 21 24 28 32 37 44 72 84 86 91 89
28 23 20 17 14 13 12 13 15 18 20 20 19 19 21 27 34 44 66 66 48 46 39 36 34 24 23 23 24 24 24 26 27 28 28 30 38 39 56 77 83 95 90
25 24 20 14 12 13 14 16 18 19 18 18 19 24 32 34 38 88 82 67 39 41 41 35 27 24 27 27 27 27 30 32 30 30 31 31 36 48 64 72 88 98 95
29 25 20 14 13 15 16 16 17 16 18 21 27 26 26 26 26 34 49 89 90 43 44 35 21 27 28 29 29 30 30 36 39 36 36 41 44 46 59 77 82 99 98
25 22 17 15 16 17 17 17 17 20 25 28 27 26 28 27 26 30 39 60 51 45 35 24 23 30 30 26 30 35 38 40 38 36 36 40 41 48 63 66 74 97 99
22 19 18 17 18 18 16 18 22 28 30 29 30 33 32 34 39 45 52 50 40 37 25 24 24 28 26 27 32 35 35 38 36 34 35 41 51 54 58 66 88 99 100
22 20 19 19 19 19 21 24 29 34 32 30 36 40 42 47 49 44 31 27 24 25 24 20 23 25 25 31 25 22 18 10 11 25 34 32 49 55 59 68 77 86 91
21 21 22 24 25 27 28 32 35 35 31 33 41 46 50 35 23 22 20 20 22 23 22 23 26 27 30 28 16 8 6 5 5 4 4 5 6 10 25 56 73 79 86
31 30 32 32 34 34 33 34 35 34 35 44 46 39 25 22 22 28 33 36 37 30 31 33 32 26 7 6 6 6 6 6 5 5 5 4 4 4 4 7 29 71 78
37 37 35 36 37 39 39 39 38 44 48 39 25 23 26 26 30 24 22 25 25 20 11 5 5 6 7 8 9 9 8 6 6 7 8 9 8 6 5 4 4 5 18
38 38 36 37 39 43 46 47 47 41 28 24 26 31 33 26 4 4 5 6 7 8 8 9 10 11 12 13 13 12 11 10 11 12 12 12 10 9 7 5 4 3 3
38 39 41 44 47 49 49 39 28 25 31 36 36 37 16 4 5 6 9 12 14 14 15 16 17 18 19 20 20 20 20 19 19 16 14 12 9 6 5 4 4 3 3
43 49 52 51 49 40 31 28 33 35 28 17 7 3 4 6 10 13 15 17 19 21 22 23 24 24 24 24 23 23 21 18 14 10 8 6 4 4 4 3 3 3 3
45 56 54 42 35 31 31 40 22 5 3 4 6 8 11 14 17 19 22 25 27 28 29 30 29 28 26 23 22 18 13 10 8 7 6 6 6 5 5 4 4 4 4
47 44 42 38 37 39 42 8 4 5 6 8 12 16 18 21 24 27 28 28 32 33 32 31 30 26 22 20 17 13 10 9 9 10 9 9 9 7 6 6 6 6 6
50 49 45 44 44 47 26 8 6 10 14 18 21 24 27 30 30 29 33 36 37 36 35 32 28 22 19 17 14 12 12 13 14 14 13 13 11 10 10 10 10 10 10

GFSMA_700_rhum_060.txt.gz
RH
38 41 42 41 42 41 42 46 48 48 45 40 36 33 32 32 33 34 40 48 49 40 36 36 38 40 50 55 55 57 60 58 55 55 57 59 59 60 60 60 59 46 39
43 42 26 25 25 24 27 32 32 33 33 31 32 34 32 32 36 40 46 47 46 39 48 46 45 45 43 50 55 62 62 60 72 74 69 65 60 62 67 68 65 59 46
30 29 32 34 32 28 21 20 22 23 25 27 28 30 28 34 40 46 42 35 29 29 38 30 27 33 34 35 41 49 49 55 62 69 81 77 72 66 67 74 74 70 64
33 35 37 37 38 37 34 29 24 24 23 21 24 30 39 32 31 27 28 29 29 30 22 24 27 31 32 34 35 52 50 51 59 69 65 60 72 75 74 75 80 83 79
36 37 38 40 42 41 36 28 26 25 25 31 38 38 46 33 32 30 31 25 28 24 23 24 26 24 28 33 38 40 45 47 60 69 68 64 68 72 80 84 83 80 81
37 38 39 41 40 36 27 27 28 31 32 32 34 35 34 34 36 52 40 22 22 21 23 20 19 22 23 29 35 37 40 50 60 69 69 73 78 82 84 81 81 78 80
40 37 37 36 28 26 30 33 36 36 35 38 37 46 45 54 53 46 19 19 18 19 19 21 34 40 37 37 44 54 59 56 52 53 49 64 74 83 81 67 96 85 82
40 34 29 27 29 32 32 32 30 28 23 23 22 28 23 18 20 20 18 18 19 20 23 35 47 42 36 35 28 34 36 34 35 36 40 42 58 73 70 76 96 92 99
30 29 29 30 30 32 30 25 19 17 15 14 16 19 20 20 19 19 22 20 21 23 35 47 59 44 32 31 32 33 30 25 23 24 27 30 34 37 47 54 74 76 93
34 33 33 32 32 32 28 23 20 17 14 14 15 18 21 23 22 21 23 25 31 34 52 51 36 44 33 30 26 18 20 22 21 21 21 22 26 28 42 68 81 85 89
36 37 36 33 30 27 24 20 16 14 14 14 16 19 20 21 21 22 25 31 41 55 63 53 40 40 33 29 19 21 21 22 22 21 22 26 27 28 28 58 77 81 95
41 36 34 31 26 23 22 17 14 13 14 15 17 20 20 18 21 28 36 44 67 100 94 45 42 40 31 21 20 22 23 23 23 25 27 27 27 26 31 42 44 57 89
38 38 38 34 31 28 23 18 14 15 17 18 18 18 20 25 29 31 32 44 97 99 60 56 42 37 26 20 23 24 25 27 28 32 36 32 34 33 39 47 52 58 69
44 41 38 34 30 26 21 16 15 17 17 18 18 20 25 29 28 30 69 89 72 56 77 50 35 28 23 19 24 25 28 32 36 38 35 34 33 37 36 43 49 59 67
46 42 35 28 25 22 19 17 17 18 18 18 19 26 29 28 28 34 33 38 46 47 53 36 27 23 21 22 25 25 29 28 32 34 32 31 34 39 44 47 49 58 66
44 36 26 24 23 21 20 19 19 19 21 23 26 31 31 30 36 38 42 48 53 47 34 26 22 22 21 25 25 26 25 18 13 10 13 21 29 32 32 34 40 57 65
36 30 26 23 21 20 20 22 24 25 26 32 34 35 33 33 40 47 54 48 33 26 20 20 22 21 22 24 23 28 12 7 6 5 5 4 4 5 4 8 19 48 69
31 25 23 22 24 28 31 31 34 38 36 36 38 37 34 40 48 51 32 24 20 24 27 27 24 25 28 29 28 10 6 6 6 6 6 6 6 6 5 4 6 12 51
28 24 24 27 31 33 37 39 40 43 43 41 39 37 47 52 37 24 23 28 31 33 34 30 32 30 25 8 5 6 8 9 9 8 8 8 9 10 10 8 6 5 7
34 38 35 32 35 37 36 39 41 44 47 46 44 50 51 31 24 26 29 19 19 20 14 8 5 6 8 9 10 12 13 13 12 11 12 13 14 14 14 12 9 6 5
46 43 40 36 35 36 37 41 43 48 51 56 53 40 28 28 30 29 4 5 6 8 9 12 13 14 15 16 17 18 19 19 20 19 19 19 16 14 12 8 6 5 4
47 43 39 36 36 40 43 45 48 54 56 47 29 28 36 40 31 4 6 8 12 14 16 18 20 21 22 23 24 25 25 24 24 21 17 14 10 7 6 5 4 4 3
47 43 38 36 44 51 51 49 49 41 32 35 40 41 36 9 5 7 11 15 17 20 23 25 26 28 28 28 28 27 26 24 20 14 12 9 8 8 8 7 6 5 4
46 37 35 39 53 54 47 41 33 36 39 25 11 4 5 7 11 15 18 22 25 28 28 31 32 31 30 29 28 25 24 20 16 12 13 13 14 14 12 11 9 8 6
37 36 45 46 46 42 38 37 43 20 4 4 6 8 11 16 18 23 26 29 30 34 36 36 36 34 31 28 25 23 21 17 15 16 18 19 19 18 17 16 14 12 10
32 43 52 51 48 44 42 46 12 4 6 9 12 16 20 24 27 30 30 34 37 40 41 42 43 40 33 29 24 20 18 16 16 18 21 24 23 23 20 18 16 14 12

GFSMA_700_rhum_063.txt.gz
RH
37 38 42 40 29 27 26 28 28 24 28 27 27 24 24 24 25 27 38 46 47 39 35 30 36 31 24 38 39 42 52 66 68 65 70 70 69 65 61 62 65 64 61
38 40 39 25 29 30 28 23 19 18 19 19 18 17 17 17 25 40 30 30 32 27 28 31 28 24 22 24 34 52 46 51 57 61 72 76 75 69 70 67 66 69 68
39 45 27 31 31 33 34 33 30 26 22 19 19 22 31 43 49 41 32 30 31 26 18 21 25 26 27 27 26 34 52 63 59 54 60 74 70 63 63 68 70 71 74
44 30 32 33 34 36 36 35 32 26 23 23 24 26 30 31 33 33 34 43 51 33 22 20 20 21 23 22 21 23 39 55 67 66 61 66 68 70 73 72 70 71 78
38 33 34 34 35 36 34 30 25 24 26 30 31 32 34 45 56 44 49 57 52 26 21 20 19 17 17 22 25 27 31 37 51 56 70 78 74 70 72 83 82 78 75
32 36 36 36 36 36 31 26 27 30 30 30 30 26 25 24 26 31 33 30 21 19 20 20 18 18 27 42 38 39 44 58 59 58 68 75 75 76 80 83 89 79 74
38 39 40 40 36 30 27 29 30 30 29 24 18 14 13 12 14 23 21 19 18 19 18 17 20 28 45 52 28 28 32 37 41 39 37 36 65 69 77 85 87 84 80
43 43 42 33 28 28 30 31 31 30 26 21 18 16 13 11 13 17 17 16 18 18 17 19 26 42 59 58 38 31 31 32 34 32 31 33 36 48 54 74 82 70 69
47 40 34 32 33 33 32 31 32 29 26 23 20 17 15 12 14 16 17 19 21 18 20 23 33 54 51 43 35 32 29 20 20 21 23 25 26 26 28 48 57 68 58
39 39 39 38 36 33 32 30 28 26 22 18 16 15 16 17 19 18 19 20 21 21 27 29 35 43 38 36 36 30 20 21 23 23 24 23 23 22 21 22 36 75 89
43 42 40 39 38 37 33 31 27 24 24 20 15 15 16 18 20 22 18 21 26 35 46 31 44 60 54 40 34 24 19 22 24 25 24 23 24 26 25 26 30 62 88
44 42 41 43 39 36 34 33 30 29 25 19 14 16 18 19 18 19 20 27 38 50 54 66 51 60 55 43 31 21 22 25 25 26 27 28 29 28 29 28 26 32 53
51 48 43 40 41 42 39 36 32 28 24 18 15 16 17 17 18 21 27 32 34 49 75 96 49 58 50 38 27 21 23 24 27 31 31 32 29 30 32 32 34 38 45
85 58 58 46 45 44 40 33 28 26 22 18 17 17 19 20 22 27 31 32 33 79 95 44 46 50 39 31 22 21 24 24 29 29 28 28 28 29 29 31 34 42 47
73 70 58 49 47 43 35 27 24 22 21 19 19 18 19 22 27 32 32 37 65 72 50 51 49 37 30 24 23 21 25 24 27 18 10 10 19 28 32 37 29 40 48
59 58 58 52 45 34 28 26 23 21 21 22 22 23 25 27 31 33 35 39 42 47 54 50 32 25 21 22 21 23 24 24 15 6 5 5 4 4 6 4 4 8 22
68 66 54 47 34 29 24 23 23 24 23 29 32 33 36 36 36 37 39 46 47 51 38 26 22 23 23 23 22 24 23 23 8 6 6 6 6 6 6 5 5 5 6
80 80 84 70 32 26 26 28 29 29 31 32 34 38 39 40 40 40 47 53 44 26 24 25 29 30 26 26 29 27 16 6 6 8 8 8 7 7 9 10 11 9 7
72 59 43 32 30 30 32 34 35 36 37 36 38 40 40 41 40 48 55 37 25 28 31 33 34 32 30 25 15 6 7 9 11 11 12 11 11 12 14 15 14 12 10
54 39 38 38 39 40 40 38 36 39 38 40 42 44 47 46 51 54 31 26 32 23 22 15 11 7 6 8 9 11 14 16 18 18 20 20 20 20 19 17 14 12 10
51 55 53 51 48 45 42 39 37 41 45 46 48 52 54 56 51 28 28 31 5 5 7 9 12 13 15 16 18 20 22 24 24 24 24 23 20 18 15 11 8 6 5
59 56 53 50 47 44 39 37 44 47 54 57 56 61 60 36 29 34 37 5 6 8 13 15 18 21 23 25 27 27 27 27 26 24 22 19 14 12 10 10 10 10 9
60 57 52 49 45 40 36 39 53 55 57 57 56 39 34 40 45 34 4 6 11 15 18 22 26 28 30 31 31 30 29 26 24 22 18 15 13 14 16 17 17 16 14
63 58 53 48 39 36 40 51 56 53 48 38 40 51 50 31 7 6 10 13 18 22 28 28 32 34 34 34 32 30 26 24 22 18 16 17 18 22 24 25 25 24 23
65 58 51 37 37 47 49 49 46 42 46 30 13 6 5 8 11 15 19 23 29 31 32 36 39 40 41 40 35 29 26 22 21 18 16 18 21 26 30 30 30 28 25
66 55 35 35 47 53 52 48 46 44 11 5 7 10 13 17 21 26 30 32 32 36 39 40 40 41 44 45 41 34 27 22 19 16 16 21 25 29 32 33 30 30 28

GFSMA_700_rhum_066.txt.gz
RH
38 38 38 43 34 26 27 26 22 19 20 19 18 18 17 17 19 26 39 36 27 24 28 26 20 23 37 34 45 52 50 58 52 58 58 56 68 73 72 68 64 61 64
38 38 39 44 26 29 30 31 31 29 26 22 19 18 20 26 35 39 45 34 32 36 43 25 19 20 18 20 33 57 61 61 68 69 66 58 62 69 62 57 57 67 65
38 38 42 33 30 31 31 33 33 32 28 22 23 22 25 27 31 38 44 42 42 51 49 24 17 18 20 20 17 21 34 74 78 73 70 70 69 71 66 67 67 62 65
38 38 44 31 33 33 34 34 32 29 24 24 28 30 31 31 31 32 48 42 43 39 40 21 18 18 18 18 20 27 27 33 67 70 70 70 69 80 80 73 73 78 74
39 41 39 34 37 36 36 34 30 26 27 28 28 27 25 20 17 17 21 28 32 23 22 20 17 18 17 21 29 41 37 33 37 53 64 72 76 82 82 80 83 84 85
40 46 34 37 37 38 36 31 26 27 28 29 27 24 21 17 15 13 14 16 18 19 20 20 20 19 22 28 41 45 31 29 33 46 54 73 76 79 82 87 85 85 86
44 43 37 40 41 41 31 26 28 30 28 29 26 24 22 21 18 14 13 15 18 19 19 18 19 21 27 37 47 46 39 31 30 32 32 34 40 58 72 75 87 95 100
50 39 42 43 46 38 30 31 31 30 28 28 26 24 21 19 17 14 12 15 19 18 20 22 20 24 32 45 51 39 34 31 29 26 21 20 24 28 37 64 73 97 94
48 48 47 47 42 34 35 34 33 31 30 28 27 24 21 18 14 13 13 17 20 21 23 23 22 32 44 64 50 35 35 31 21 18 22 21 22 22 22 28 46 64 78
56 58 49 41 39 39 39 37 36 34 31 29 28 28 25 20 16 13 16 20 22 22 22 23 28 33 30 38 34 41 34 27 20 21 22 22 23 23 21 21 26 53 64
79 87 91 54 44 45 44 42 38 36 36 34 32 29 24 18 16 18 18 22 22 22 23 28 30 37 40 38 43 38 31 22 20 23 24 25 24 26 27 27 26 27 34
89 89 82 58 49 49 48 44 42 41 39 36 33 29 24 19 17 19 19 20 25 26 32 34 34 42 81 58 54 38 28 19 22 23 25 28 30 32 31 30 30 27 26
93 72 64 58 58 56 77 61 51 44 41 36 30 27 23 20 18 19 20 23 29 35 38 36 47 87 80 65 47 34 25 18 23 24 30 32 30 30 29 29 30 29 30
66 78 78 76 78 78 78 57 50 45 40 33 27 24 23 22 21 20 21 25 32 37 36 50 93 85 59 58 41 30 22 17 23 25 24 21 20 25 28 29 30 31 35
82 89 92 80 78 72 58 63 53 42 30 25 24 23 23 25 27 26 25 28 35 37 40 76 97 61 58 43 30 22 21 17 23 24 23 15 8 7 11 13 21 30 29
94 94 92 72 64 62 61 57 38 29 25 24 23 24 26 28 33 36 33 34 37 39 68 48 53 60 45 31 24 22 20 22 23 25 11 6 6 6 6 6 5 4 5
73 76 85 81 83 78 81 62 57 34 24 25 29 32 32 35 37 41 39 41 40 41 48 52 54 43 32 28 27 24 24 25 25 16 8 6 7 8 7 8 8 8 8
87 90 86 80 77 76 71 66 66 36 33 33 34 36 39 40 45 47 47 44 43 49 56 48 31 27 32 34 28 29 32 29 7 6 8 10 10 10 8 9 11 13 14
88 88 89 85 73 60 41 37 39 38 39 40 37 39 41 43 46 47 46 47 52 60 42 26 30 33 34 31 28 17 7 7 9 11 13 14 15 15 15 15 16 17 17
91 91 75 62 45 45 43 47 47 44 42 39 40 42 43 48 54 54 53 57 68 40 30 33 31 27 14 7 7 10 11 14 16 19 21 22 23 23 22 20 18 16 14
73 61 47 51 56 54 52 48 46 43 40 38 42 48 50 52 59 62 65 64 37 32 19 8 7 8 11 13 15 17 19 22 23 25 26 25 24 22 19 15 13 10 8
52 58 61 60 58 55 50 47 44 41 37 39 51 53 60 64 64 68 54 34 33 24 5 8 13 15 17 20 23 26 27 28 28 27 26 24 22 18 14 13 12 12 13
61 51 48 52 58 55 51 46 41 35 36 48 55 59 66 73 62 41 39 43 28 5 9 14 18 23 26 28 30 32 31 30 29 26 23 22 18 16 16 18 20 20 21
53 49 48 56 60 56 50 41 34 38 46 54 56 56 48 46 48 58 50 11 7 12 17 22 28 31 33 35 36 36 34 32 27 24 22 20 17 18 20 23 26 28 29
56 57 64 69 62 52 40 31 43 48 48 47 46 50 52 48 30 9 7 12 18 24 29 32 34 38 40 41 40 41 41 36 28 22 18 17 16 18 21 24 29 32 34
60 69 77 71 58 38 33 45 52 48 46 48 16 5 5 7 11 16 21 24 30 33 34 38 42 42 40 41 44 46 44 40 31 24 19 18 17 19 24 29 34 37 38

GFSMA_700_rhum_069.txt.gz
RH
42 40 39 39 41 38 28 28 28 26 23 22 21 19 18 19 22 30 40 36 39 33 34 49 39 19 22 28 62 59 56 60 60 61 64 62 55 57 63 64 58 59 62
41 40 38 39 44 30 30 31 32 32 32 30 26 23 22 23 26 29 32 42 50 42 39 46 37 15 15 16 20 44 64 74 67 81 81 74 71 63 63 63 58 61 58
40 39 38 39 44 30 32 33 36 37 36 29 24 26 28 29 30 28 23 22 24 23 23 32 21 17 18 17 16 16 22 42 57 79 84 76 76 76 72 75 69 68 68
40 39 39 39 43 32 34 34 34 32 28 26 28 29 30 26 22 18 15 14 13 16 20 22 19 17 21 19 18 20 26 36 36 31 66 80 80 78 78 82 78 72 71
42 41 39 40 41 34 36 36 35 31 26 27 28 27 26 25 22 21 19 16 13 14 16 18 18 18 21 18 19 26 38 41 28 27 35 55 79 81 83 86 83 80 80
48 45 40 43 39 36 39 40 36 27 27 28 28 26 26 26 24 22 19 16 14 15 16 16 18 21 22 20 22 29 39 42 36 29 29 35 54 81 81 84 89 87 83
53 50 42 48 38 41 41 42 32 30 31 32 30 30 28 27 24 21 18 15 14 15 15 16 18 18 21 25 28 34 46 40 32 32 28 28 30 35 43 77 77 84 86
62 56 51 47 44 46 47 47 34 34 33 33 35 32 29 27 26 24 22 17 15 16 19 19 19 20 22 30 37 39 52 32 32 31 26 18 17 19 22 29 38 73 85
68 52 59 53 55 56 51 41 39 38 34 37 36 35 32 30 27 25 23 18 16 18 21 23 23 26 29 42 49 50 52 37 36 29 19 18 20 20 20 21 23 34 69
65 81 80 70 71 72 51 48 44 42 41 37 37 38 38 35 31 28 24 19 17 19 21 23 23 28 41 49 43 53 48 41 35 25 18 21 21 22 21 21 20 20 26
85 88 85 92 80 78 70 76 50 46 47 46 50 46 41 36 31 28 24 21 20 20 21 23 24 30 37 49 48 58 57 44 34 22 20 22 24 24 23 24 24 24 24
92 94 97 97 97 99 96 60 54 59 72 60 54 47 43 38 31 27 25 24 24 23 25 25 32 30 35 64 73 67 51 35 30 22 22 24 29 29 30 28 26 28 28
97 96 100 100 96 72 63 69 68 77 81 75 57 53 47 35 28 26 25 25 28 26 25 30 29 54 39 52 75 69 48 33 27 20 23 27 30 28 28 28 27 28 29
100 100 100 92 77 74 90 85 82 81 73 62 65 56 38 28 26 25 25 29 29 31 30 33 47 42 59 99 96 70 44 28 21 22 24 26 22 16 19 23 27 31 30
98 99 84 85 90 98 88 92 71 70 66 60 56 32 26 25 24 27 28 30 35 37 31 85 47 55 56 100 82 61 38 23 21 21 25 25 18 8 5 5 7 14 23
91 88 92 85 82 77 77 77 74 72 77 74 68 60 36 31 30 32 35 35 35 42 46 55 74 92 76 63 63 38 30 25 22 23 24 24 7 6 6 7 7 6 6
93 90 83 80 79 84 89 88 82 79 66 60 65 70 43 36 36 38 38 40 41 47 47 64 57 52 59 58 42 29 28 27 24 25 25 10 7 7 8 9 9 9 8
91 95 90 90 82 73 82 84 80 57 48 38 39 38 38 39 40 41 43 44 49 52 54 56 59 62 63 36 30 33 30 29 30 26 7 7 9 11 11 11 11 11 12
90 94 94 96 91 90 84 72 48 40 40 42 44 46 44 42 42 42 43 50 55 57 56 56 66 67 39 33 39 34 34 28 9 7 10 12 14 16 16 16 17 17 18
90 86 95 95 93 78 58 43 45 47 49 49 48 46 44 41 43 47 48 56 60 61 61 70 59 36 40 38 32 15 8 8 11 14 16 19 21 23 23 23 22 21 20
60 74 84 69 60 48 53 55 56 53 51 47 45 43 40 39 47 54 56 61 66 68 73 57 37 29 18 10 9 10 14 17 19 22 24 25 26 26 24 22 20 17 14
61 65 61 51 58 58 53 54 56 54 49 46 42 37 37 45 58 63 68 69 73 75 50 38 10 7 9 13 16 20 23 26 28 29 29 27 26 25 22 19 16 14 12
61 55 57 61 52 49 48 50 54 52 48 41 36 37 45 57 64 70 76 78 61 43 44 19 6 11 16 21 26 29 31 32 32 31 30 27 25 23 20 18 16 17 19
56 58 64 57 52 51 53 59 59 51 39 34 41 48 56 61 65 64 54 48 46 46 13 7 13 19 27 30 33 35 36 36 37 34 29 25 23 20 19 19 20 22 24
55 59 61 58 55 61 68 66 54 37 35 46 49 48 48 50 57 62 63 51 16 8 12 18 26 31 34 37 40 41 41 42 41 36 30 25 22 19 18 19 21 25 30
67 65 65 61 60 69 72 64 43 38 46 51 48 47 29 15 9 8 8 11 16 22 28 32 34 37 42 43 42 42 44 45 45 42 35 29 24 20 19 20 24 29 34

GFSMA_700_rhum_072.txt.gz
RH
45 44 42 41 40 42 39 30 29 29 29 29 29 27 25 24 24 27 30 31 33 37 42 29 32 27 18 15 36 26 74 70 71 61 64 74 70 65 59 54 58 56 51
44 44 42 40 40 41 39 30 31 32 34 34 34 27 25 28 30 31 29 22 17 14 13 15 20 18 17 15 16 15 15 20 50 70 76 86 81 73 71 62 63 63 60
44 45 43 40 39 41 39 32 34 35 34 33 29 26 28 29 28 25 20 18 18 15 12 14 17 18 19 18 17 15 15 20 28 32 55 74 87 80 74 71 73 73 66
46 46 44 42 39 42 39 35 37 38 36 30 26 26 26 27 26 24 23 22 20 17 13 13 16 19 19 18 18 17 18 24 34 38 34 54 67 87 83 78 79 80 75
50 45 45 43 40 42 40 38 40 40 37 27 26 28 28 27 26 26 24 22 18 16 14 13 15 17 19 20 20 19 22 28 38 40 29 28 42 69 84 88 85 83 81
51 49 47 45 41 42 42 40 43 42 35 29 31 30 31 32 31 28 27 26 22 17 15 15 16 18 19 21 21 20 25 30 36 36 29 30 30 34 60 76 86 85 82
69 66 57 51 44 46 43 41 44 47 33 35 35 34 35 34 33 32 29 27 26 20 16 15 17 18 19 18 20 23 30 34 42 32 26 30 28 28 28 36 66 85 88
69 66 62 62 49 51 46 48 50 50 38 40 41 37 35 35 35 34 32 29 27 23 19 18 18 18 20 21 26 29 33 34 47 32 33 30 23 17 17 19 24 33 57
56 66 65 77 58 58 56 59 60 52 48 43 44 41 39 41 46 43 34 32 30 25 22 20 20 20 22 25 30 39 38 44 39 40 35 25 18 18 20 20 21 23 31
65 62 71 82 84 78 82 84 82 56 48 48 45 48 57 57 53 48 40 35 32 27 23 21 22 22 25 29 39 43 48 52 50 41 30 22 19 20 20 22 22 22 23
85 75 82 89 93 98 98 97 97 75 73 90 53 67 64 60 59 51 46 37 31 28 25 22 23 23 23 28 45 48 52 70 58 39 26 19 20 23 24 24 24 23 23
97 94 98 97 96 98 97 97 98 98 95 56 54 63 76 72 61 60 53 36 29 26 25 24 24 27 27 29 70 51 56 68 57 41 27 19 21 25 28 27 28 26 25
97 98 99 99 99 100 100 100 96 85 75 84 82 83 73 63 60 56 43 29 26 26 25 26 29 34 32 35 53 46 76 72 54 38 25 20 22 25 25 23 25 26 24
95 99 99 100 100 98 100 95 82 78 87 90 79 70 66 61 59 43 30 29 27 26 27 30 33 41 52 73 56 72 98 66 58 33 22 20 23 24 17 14 20 26 27
96 98 98 98 100 87 95 94 93 93 83 83 72 72 71 71 72 69 54 35 36 33 32 33 43 53 99 79 86 95 100 85 54 28 24 21 25 24 16 7 6 8 11
99 98 99 87 95 96 83 81 76 75 82 85 83 79 74 61 56 66 63 39 40 42 44 43 47 91 67 85 100 100 78 78 42 27 26 24 25 24 6 6 6 7 6
76 82 88 93 90 86 85 76 78 80 79 83 73 53 47 40 39 46 52 41 44 46 46 57 51 63 96 93 85 72 68 54 33 30 26 26 26 13 6 7 8 8 9
75 83 92 95 97 95 92 96 92 85 80 69 48 40 41 44 46 44 44 44 45 50 54 55 62 61 70 64 64 72 52 35 36 30 31 30 12 7 8 10 11 11 10
83 89 84 87 91 94 99 93 93 84 69 44 43 46 46 45 44 44 44 42 45 54 56 60 60 58 61 63 71 43 38 41 35 36 25 7 8 11 13 14 16 16 16
84 85 88 88 92 96 96 86 81 53 43 44 46 46 46 44 43 43 42 41 49 57 60 64 67 64 66 69 39 42 43 38 23 9 9 12 15 18 20 21 22 23 22
79 91 91 83 68 71 76 65 50 49 50 50 51 49 47 44 42 39 38 42 57 62 68 71 74 75 75 41 46 41 25 10 10 14 17 20 23 24 26 26 25 24 22
41 44 52 65 80 73 58 54 54 47 44 43 44 45 44 42 38 36 40 54 64 70 75 79 82 68 42 20 9 9 12 16 20 23 26 28 28 28 26 25 23 20 17
50 54 62 70 67 56 59 55 50 48 48 50 50 49 42 36 36 42 55 65 75 81 83 75 51 43 10 8 13 18 23 27 30 31 32 31 29 27 25 23 20 17 15
66 70 68 59 56 66 62 56 54 59 60 57 51 38 34 41 46 54 64 72 76 65 51 48 40 10 9 15 24 29 32 33 35 36 36 34 29 26 23 21 18 18 19
62 61 59 57 62 66 60 57 59 66 66 61 43 35 43 44 43 46 50 55 55 57 49 19 8 14 23 29 32 35 38 41 41 41 39 35 30 25 21 19 18 18 20
63 60 61 62 62 64 65 62 61 61 55 52 40 44 46 43 33 26 34 36 22 11 10 17 25 31 34 36 40 43 43 44 46 46 43 40 36 30 24 20 19 19 21